Temperature
33 33 32 33 32 33 32 32 32 32 34 33 32 31 31 31 31 29 28 27 26 25 25 24 23 22 21 20 20 20 19 19 19 19 19 18 18 18 18 18 19 18 18 18
33 33 34 34 34 34 33 32 32 32 33 33 32 31 31 31 31 30 29 28 27 26 25 24 23 22 21 20 20 20 19 19 19 19 19 18 18 18 18 18 18 18 18 18
32 34 35 34 34 34 33 33 32 32 32 32 31 30 31 31 31 30 30 28 28 26 25 24 23 22 21 21 20 20 20 19 19 19 19 18 18 18 18 18 18 18 18 18
33 34 34 34 34 34 33 34 33 33 32 31 31 29 29 30 30 30 30 29 28 27 25 24 23 22 22 21 20 20 20 19 19 19 18 18 18 18 18 18 18 18 18 18
33 34 34 33 34 34 33 34 33 33 32 32 31 30 29 30 30 30 30 29 28 27 26 24 23 22 22 21 20 20 20 19 19 19 19 18 18 18 18 18 18 18 18 18
34 35 35 34 34 34 34 34 33 33 32 30 31 31 29 30 30 30 30 29 28 27 26 25 24 23 22 21 20 20 20 19 19 19 18 18 18 18 18 18 18 18 18 18
33 34 35 35 34 34 34 32 31 30 30 29 31 31 30 31 31 31 30 29 28 27 26 25 24 23 22 21 21 20 20 19 19 19 18 18 18 18 18 18 18 18 18 18
32 32 34 34 34 33 33 33 31 29 29 30 31 30 30 31 31 31 30 29 28 27 26 25 24 23 22 21 21 20 20 19 19 19 18 18 18 18 18 18 18 18 18 18
32 32 34 34 35 34 33 33 33 32 31 30 30 29 30 31 31 31 30 29 28 27 26 25 24 23 22 21 21 20 20 19 19 18 18 18 18 18 17 17 17 17 17 17
33 31 33 34 34 34 34 33 32 31 29 30 30 29 28 29 30 30 30 29 27 26 25 24 24 23 22 21 21 20 20 19 19 18 18 18 18 18 17 17 17 17 17 17
33 31 32 33 33 32 33 32 32 31 31 30 29 28 29 29 29 29 29 28 27 26 25 24 23 23 22 21 21 20 20 19 18 18 18 18 17 17 17 17 17 17 17 17
32 32 31 32 34 34 33 33 32 30 30 30 29 28 30 30 30 29 28 27 26 25 25 24 23 22 22 21 20 19 19 19 18 18 18 18 17 17 17 17 17 17 17 17
31 30 29 30 31 32 32 32 32 32 31 30 29 28 30 30 29 29 28 27 26 25 24 23 22 22 21 20 20 19 19 18 18 18 18 18 17 17 17 17 17 17 17 17
29 30 29 29 30 31 31 31 32 31 30 30 29 28 29 29 29 28 27 26 25 24 23 23 22 21 20 20 20 19 19 18 18 18 17 17 17 17 17 17 17 17 17 16
30 29 30 30 31 31 31 31 31 30 30 30 29 29 29 28 28 27 26 26 25 24 23 22 21 20 20 20 19 19 18 18 18 17 17 17 17 17 17 17 17 17 16 16
29 29 28 29 30 30 30 30 30 30 31 30 29 29 29 29 28 27 26 25 24 23 23 22 21 20 19 19 19 18 18 18 18 17 17 17 17 17 16 16 16 16 16 16
28 28 27 27 29 29 28 30 30 30 30 30 28 29 29 28 27 26 25 24 23 23 22 21 20 20 19 19 18 18 18 18 17 17 17 16 16 16 16 16 16 16 16 16
28 27 27 27 27 26 28 30 30 30 29 30 29 29 28 27 26 25 24 24 23 22 21 21 20 19 19 18 18 18 18 18 17 17 16 16 16 16 16 16 16 16 15 15
28 27 26 26 26 26 28 29 29 28 28 29 28 28 28 27 26 24 23 23 22 22 21 20 20 19 19 18 18 17 17 17 17 16 16 16 16 16 16 15 15 15 15 15
28 27 26 26 25 25 26 28 28 28 26 28 27 27 26 26 25 24 23 22 21 21 20 19 19 19 18 18 17 17 17 16 16 16 16 15 15 15 15 15 15 15 15 15
26 26 25 25 25 25 26 27 27 25 25 25 25 25 25 24 23 22 22 21 21 20 20 19 18 18 18 17 17 17 16 16 16 16 15 15 15 15 15 15 14 14 14 14
25 25 25 25 25 24 26 26 25 24 24 24 24 23 23 22 22 21 21 20 20 19 19 18 18 17 17 17 16 16 16 16 16 15 15 15 14 14 14 14 14 14 14 14
24 24 25 25 24 24 24 24 24 23 23 23 22 22 22 22 21 21 20 19 19 18 18 17 17 17 16 16 16 16 16 15 15 15 15 14 14 14 14 14 14 14 14 14
24 25 24 23 24 24 24 23 23 22 22 22 22 21 21 21 21 20 19 19 18 18 17 17 17 16 16 15 15 15 15 15 15 14 14 14 14 14 14 14 14 14 14 14
23 23 23 23 23 23 22 22 22 21 21 21 21 21 21 20 20 19 19 18 18 17 17 17 16 16 15 15 15 15 15 15 14 14 14 14 14 14 14 14 13 13 14 14
24 23 23 22 22 22 21 21 21 20 20 20 20 20 20 19 19 19 18 18 17 17 17 16 16 15 15 15 14 14 14 14 14 14 13 13 13 13 13 13 13 13 13 14
Wind_Speed
11 10 7 5 6 9 6 5 4 2 2 3 4 7 8 8 8 9 9 9 9 8 8 8 8 9 10 9 8 7 5 5 4 2 2 2 2 2 1 2 3 3 3 2
10 9 9 8 8 8 7 6 3 2 2 2 3 4 6 6 7 8 9 9 9 9 9 8 9 9 9 8 8 7 6 6 4 3 3 3 2 2 2 1 2 2 2 2
11 8 8 9 8 8 7 5 5 5 5 5 4 4 7 7 6 7 8 8 9 9 10 10 9 9 9 9 8 7 6 6 5 4 3 2 2 1 1 1 1 2 2 2
11 11 10 9 8 9 7 6 7 8 7 6 6 4 5 7 7 6 6 6 8 8 9 9 9 8 8 9 8 7 6 5 4 4 3 3 3 2 2 2 1 2 2 3
11 10 9 10 9 9 8 7 9 10 11 10 8 3 5 9 8 7 5 5 5 7 8 10 9 8 8 8 8 7 6 5 5 4 3 3 3 2 1 1 2 2 2 3
13 11 9 10 10 9 8 9 11 11 9 10 8 5 4 5 5 7 7 6 6 6 7 8 8 8 7 8 8 8 7 6 5 4 3 3 2 2 2 2 2 3 2 2
14 13 11 10 11 10 9 9 7 7 7 8 8 6 2 5 5 5 6 6 6 6 7 8 8 8 7 7 7 7 8 7 6 5 4 3 3 3 2 2 2 3 2 2
12 10 10 10 10 10 10 11 9 8 7 7 8 4 3 5 6 6 6 7 6 6 6 7 7 7 7 7 7 7 7 7 7 6 4 3 3 3 2 2 2 3 2 2
10 10 9 10 11 12 11 10 11 11 12 8 4 1 2 3 4 6 6 7 6 6 5 5 6 7 6 6 6 6 6 6 6 6 5 4 4 3 2 2 2 2 2 2
12 12 11 9 10 12 11 10 7 8 8 9 4 4 3 4 3 5 6 6 5 6 5 5 5 5 5 6 5 4 6 6 6 5 5 4 4 3 3 3 2 2 2 2
12 12 12 10 10 10 10 10 9 8 9 9 7 1 3 4 3 5 6 7 6 5 5 5 4 5 5 4 5 3 4 6 6 5 4 3 4 4 4 3 2 2 2 1
8 11 12 12 8 9 11 11 10 8 8 9 8 2 3 3 3 4 6 7 6 5 5 5 4 4 4 4 3 4 3 4 5 4 4 4 3 3 3 3 2 2 2 2
6 8 11 11 9 10 10 9 10 10 9 9 8 4 3 3 4 4 7 7 6 5 5 5 5 4 3 3 2 2 3 3 4 4 4 4 3 3 3 2 2 1 1 2
5 10 11 11 8 8 10 10 10 11 9 8 7 3 3 2 3 4 6 7 6 5 4 4 4 4 3 2 2 1 1 1 2 3 3 3 3 2 2 2 2 2 2 3
8 11 12 13 13 12 11 11 10 11 11 9 7 5 3 3 4 4 4 6 5 4 3 3 3 3 2 2 1 1 1 1 1 1 3 2 2 1 2 2 2 2 3 3
7 9 11 13 13 13 12 12 11 12 10 8 7 4 0 3 4 3 3 4 4 3 3 2 3 3 2 1 1 1 1 1 1 1 1 1 1 2 2 1 1 2 2 2
7 8 11 12 12 12 15 12 10 8 6 6 5 3 1 4 3 4 3 3 4 3 2 2 2 1 2 1 1 1 1 1 1 1 0 1 1 2 2 2 1 2 2 2
9 8 8 11 12 14 9 7 7 7 6 5 3 2 2 3 6 6 3 3 3 2 2 2 2 1 1 2 2 1 0 1 1 0 1 0 1 1 2 2 2 2 2 2
10 7 9 10 11 11 9 5 6 7 5 3 2 1 1 2 3 4 4 4 3 3 3 2 1 2 2 2 2 1 1 1 0 0 1 1 1 2 2 2 2 2 2 2
11 9 10 11 11 11 6 4 7 8 6 3 3 3 2 2 1 2 5 5 3 3 3 3 3 3 3 3 2 1 2 2 1 1 1 1 2 2 2 1 2 2 1 2
10 11 12 13 13 7 4 5 7 6 2 5 5 5 5 4 4 4 5 4 3 3 4 4 3 3 3 3 3 2 2 2 2 1 1 1 1 2 1 1 1 1 2 2
9 9 9 11 13 7 3 3 3 3 5 6 6 6 6 5 5 4 5 6 5 4 4 3 3 3 3 3 3 2 2 2 2 1 1 1 1 2 1 1 1 1 1 2
7 6 5 5 3 2 4 3 4 4 4 4 4 5 4 3 3 4 4 4 3 3 3 2 2 2 2 3 2 2 3 3 3 2 1 1 1 2 1 1 1 1 1 2
5 4 5 4 2 1 2 2 3 3 3 4 3 4 4 4 4 3 3 3 2 2 1 1 1 2 2 2 2 2 2 2 2 2 1 1 0 1 0 1 1 1 2 2
5 5 6 5 3 3 2 3 3 3 3 4 4 4 3 3 3 3 2 2 2 1 2 2 1 1 2 2 2 2 2 2 1 1 1 1 1 1 1 0 1 1 1 1
8 6 6 5 3 4 3 3 3 3 2 3 4 5 5 4 3 2 2 2 1 1 1 2 1 1 1 1 1 1 1 1 1 1 1 1 1 1 1 0 1 4 1 2
Wind_Direction
236 242 251 249 239 254 260 265 271 276 174 166 146 141 154 158 158 153 155 155 157 162 156 150 148 145 146 149 151 154 154 150 159 159 171 187 184 201 202 191 166 175 211 223
247 245 257 261 251 266 264 264 278 291 260 264 170 168 162 164 170 167 164 163 162 167 158 154 155 154 155 153 154 153 165 165 175 171 185 194 186 207 199 199 147 187 207 222
249 254 259 264 268 274 270 273 266 268 268 256 204 206 185 175 181 172 166 165 166 165 163 162 165 167 164 165 170 170 163 164 181 174 186 192 175 222 221 199 175 198 212 219
250 254 263 268 269 276 277 289 273 266 266 263 241 238 213 175 182 179 169 165 167 164 161 163 170 176 175 175 175 164 160 161 171 181 189 196 194 209 215 206 202 218 215 225
252 253 257 265 270 275 279 287 275 269 270 268 258 241 219 184 184 174 164 160 160 160 164 167 175 176 176 172 170 163 155 162 167 177 190 207 214 207 210 203 212 230 234 236
259 257 254 261 267 264 277 278 275 267 270 269 267 256 218 177 168 165 159 159 161 158 157 160 165 163 168 168 169 163 156 167 173 183 184 200 227 230 227 227 229 237 233 233
248 245 246 252 261 252 262 270 266 260 251 259 264 260 170 123 134 141 141 142 152 149 151 152 155 158 167 170 169 167 163 172 176 181 190 199 225 233 234 238 239 255 258 251
252 243 234 239 250 255 254 261 267 275 278 269 258 226 136 114 113 117 123 136 137 132 137 145 154 159 166 169 167 172 170 172 176 182 190 202 213 231 241 246 249 253 258 251
266 261 242 234 239 250 254 263 274 276 276 272 261 151 113 109 119 117 119 118 124 128 129 137 149 158 164 171 168 175 165 171 178 184 188 193 204 222 239 241 247 256 267 260
267 274 256 240 238 235 249 267 281 278 281 279 244 211 192 193 167 129 117 114 110 117 120 125 140 156 162 170 162 164 163 171 176 185 194 202 203 210 231 243 248 262 270 283
264 264 263 247 239 242 240 249 259 271 280 284 282 260 135 166 168 137 127 119 112 112 115 117 125 141 144 147 150 153 166 170 177 185 188 194 199 207 219 235 241 253 269 265
266 265 265 258 248 251 251 249 251 260 270 280 285 243 121 113 97 109 118 109 101 95 101 113 119 122 129 136 143 156 168 177 178 180 183 193 201 206 219 229 234 241 261 261
307 274 266 254 239 240 257 256 254 259 259 264 268 238 160 118 103 104 111 105 100 97 98 112 120 113 109 115 125 149 185 191 187 187 193 197 209 213 228 237 230 227 243 259
282 266 266 267 268 259 256 261 265 261 260 263 260 221 190 148 115 102 106 117 117 109 100 107 116 108 99 95 109 144 194 190 192 184 199 204 217 223 231 247 232 229 232 239
266 265 268 271 274 279 270 267 261 260 263 268 268 249 198 138 111 108 109 111 111 110 107 103 107 106 106 101 95 116 141 125 136 197 206 206 217 224 239 241 237 236 241 246
266 271 277 271 267 270 266 261 255 256 262 262 266 272 93 114 103 106 105 113 107 91 78 80 96 108 112 103 81 57 50 85 115 160 235 206 207 218 233 236 228 242 246 262
255 270 277 268 261 258 256 257 256 259 270 271 264 271 93 100 86 83 90 93 97 91 81 72 85 95 133 133 100 66 40 112 122 139 231 203 209 216 236 248 234 247 245 250
251 265 266 268 271 262 257 267 270 259 268 269 266 315 37 78 89 89 90 80 81 66 75 76 78 77 62 105 84 42 120 144 144 163 269 287 268 252 250 247 239 241 242 249
250 248 259 263 262 255 260 269 281 278 269 278 272 294 16 92 106 91 71 66 54 62 62 61 65 81 70 62 70 37 10 91 101 343 323 314 275 262 271 254 245 244 242 252
238 235 247 258 260 258 258 281 289 274 251 2 17 15 4 357 286 32 58 63 50 56 65 51 43 58 59 53 67 59 28 45 31 354 334 333 320 293 271 262 256 247 236 234
240 234 240 255 257 252 286 317 304 272 330 33 34 23 18 29 29 43 46 50 58 62 67 63 44 43 53 44 48 52 33 17 6 353 359 352 342 303 284 277 269 236 229 228
256 253 244 249 255 248 325 304 321 43 46 36 32 28 30 39 48 43 51 46 39 60 66 58 43 37 41 36 34 25 20 15 19 25 14 347 331 304 322 342 297 245 225 233
246 265 268 265 266 52 48 51 66 68 52 40 32 22 25 27 26 37 60 66 54 32 58 61 48 40 38 39 35 19 11 14 20 19 12 360 358 345 357 328 289 271 237 238
258 297 291 289 267 350 45 65 50 42 19 14 15 2 1 10 9 26 38 40 51 46 21 33 33 22 23 33 42 47 24 23 26 23 2 336 316 271 318 288 268 267 258 252
287 271 269 266 274 305 321 341 350 15 2 351 349 345 348 347 344 1 3 15 28 27 359 13 22 2 6 35 37 31 25 20 8 7 331 295 303 315 32 17 332 308 344 344
275 275 261 267 286 286 283 308 331 328 321 327 328 326 324 319 316 327 334 340 356 357 356 3 9 355 4 21 33 26 35 52 11 332 318 283 269 281 238 230 11 26 34 81
Height
1475 1477 1477 1475 1473 1474 1473 1478 1480 1475 1467 1470 1476 1481 1481 1483 1486 1490 1495 1498 1501 1504 1507 1510 1512 1514 1516 1517 1519 1520 1521 1522 1524 1525 1526 1527 1528 1530 1531 1531 1531 1532 1532 1532
1475 1475 1469 1466 1466 1467 1469 1475 1478 1474 1468 1471 1477 1479 1478 1481 1484 1488 1492 1496 1499 1503 1506 1509 1511 1513 1515 1516 1518 1519 1520 1521 1522 1524 1525 1526 1528 1529 1530 1530 1530 1531 1531 1531
1475 1470 1465 1465 1466 1469 1470 1473 1476 1477 1472 1470 1476 1485 1481 1480 1482 1485 1488 1492 1496 1500 1504 1507 1509 1511 1513 1514 1516 1518 1519 1520 1521 1523 1524 1526 1527 1527 1528 1529 1529 1529 1530 1530
1468 1464 1464 1466 1467 1468 1474 1465 1467 1471 1477 1482 1478 1497 1486 1481 1482 1483 1486 1489 1493 1497 1501 1504 1507 1509 1511 1513 1515 1516 1517 1518 1520 1521 1523 1524 1525 1526 1527 1527 1527 1528 1528 1528
1468 1463 1465 1468 1466 1465 1468 1462 1465 1468 1474 1479 1476 1488 1491 1478 1482 1482 1484 1487 1491 1494 1498 1501 1504 1507 1510 1512 1513 1514 1516 1517 1518 1520 1521 1522 1523 1524 1525 1526 1526 1526 1527 1527
1463 1460 1460 1462 1461 1461 1461 1464 1465 1466 1473 1491 1481 1485 1492 1477 1477 1478 1481 1486 1489 1493 1496 1500 1503 1506 1508 1510 1512 1513 1514 1515 1517 1518 1519 1520 1521 1522 1523 1523 1524 1524 1525 1525
1468 1461 1458 1459 1463 1461 1463 1474 1487 1494 1496 1496 1475 1479 1485 1472 1471 1475 1479 1484 1488 1491 1495 1498 1501 1504 1507 1509 1510 1512 1512 1513 1515 1516 1517 1518 1519 1520 1521 1521 1521 1522 1522 1523
1474 1472 1459 1458 1462 1466 1465 1469 1489 1503 1501 1492 1475 1481 1480 1470 1472 1475 1479 1483 1487 1491 1494 1497 1500 1502 1505 1507 1508 1509 1510 1511 1513 1514 1515 1516 1517 1518 1518 1519 1519 1520 1520 1520
1470 1471 1454 1454 1456 1459 1466 1467 1463 1475 1480 1489 1484 1482 1477 1471 1472 1475 1478 1482 1486 1490 1493 1496 1498 1501 1503 1505 1506 1508 1509 1510 1510 1512 1513 1514 1515 1515 1516 1517 1517 1517 1517 1518
1461 1470 1457 1452 1453 1454 1457 1460 1468 1479 1494 1496 1489 1488 1488 1480 1476 1475 1479 1482 1486 1490 1493 1495 1497 1500 1502 1503 1505 1506 1507 1507 1508 1509 1511 1512 1512 1513 1513 1514 1514 1515 1515 1515
1457 1467 1463 1455 1459 1462 1461 1464 1468 1472 1474 1490 1496 1495 1474 1476 1474 1475 1479 1483 1486 1489 1492 1494 1496 1498 1500 1502 1503 1504 1505 1505 1507 1508 1509 1510 1510 1510 1511 1511 1511 1512 1512 1512
1457 1462 1468 1459 1451 1451 1454 1459 1464 1479 1482 1479 1487 1492 1469 1471 1473 1475 1479 1483 1486 1489 1491 1493 1496 1498 1500 1501 1502 1503 1503 1504 1505 1506 1507 1507 1508 1508 1508 1508 1509 1509 1509 1509
1463 1468 1478 1473 1465 1457 1457 1456 1457 1462 1470 1478 1488 1491 1470 1472 1474 1477 1480 1484 1487 1490 1492 1493 1495 1497 1498 1500 1500 1501 1502 1503 1503 1504 1504 1505 1505 1505 1505 1506 1506 1506 1506 1506
1467 1468 1475 1482 1474 1462 1463 1460 1459 1463 1472 1477 1479 1482 1474 1473 1475 1478 1481 1484 1487 1490 1492 1493 1495 1496 1497 1498 1499 1500 1500 1501 1502 1502 1502 1502 1503 1503 1503 1503 1503 1503 1503 1503
1465 1469 1467 1464 1459 1459 1461 1461 1461 1464 1465 1472 1473 1474 1472 1472 1475 1479 1482 1484 1487 1490 1491 1493 1494 1495 1496 1497 1498 1498 1499 1499 1499 1500 1500 1500 1500 1500 1500 1500 1500 1500 1500 1500
1466 1470 1471 1470 1462 1461 1463 1461 1460 1461 1460 1464 1468 1471 1468 1472 1476 1479 1482 1484 1486 1489 1491 1492 1493 1494 1495 1495 1496 1496 1497 1497 1497 1497 1498 1498 1498 1497 1497 1498 1497 1497 1497 1497
1469 1473 1477 1476 1465 1465 1473 1461 1460 1460 1460 1464 1471 1470 1468 1472 1476 1480 1483 1484 1487 1489 1490 1491 1492 1493 1493 1494 1494 1494 1495 1495 1495 1495 1495 1495 1495 1495 1495 1495 1495 1494 1494 1494
1470 1474 1476 1475 1475 1486 1469 1455 1456 1459 1460 1461 1464 1467 1469 1473 1477 1481 1484 1485 1486 1488 1489 1490 1491 1491 1492 1492 1493 1493 1493 1493 1493 1493 1493 1492 1492 1492 1492 1492 1491 1492 1492 1491
1466 1472 1477 1477 1481 1476 1465 1459 1460 1466 1466 1463 1465 1468 1471 1474 1476 1481 1483 1484 1486 1487 1488 1489 1490 1490 1490 1490 1491 1491 1491 1491 1491 1490 1490 1490 1490 1489 1489 1489 1489 1489 1489 1489
1463 1467 1475 1476 1484 1485 1472 1463 1462 1464 1471 1466 1467 1469 1472 1473 1477 1482 1483 1484 1486 1487 1487 1488 1489 1488 1488 1489 1489 1489 1489 1489 1489 1488 1488 1488 1487 1487 1487 1486 1486 1486 1486 1486
1469 1469 1474 1476 1477 1474 1468 1466 1465 1477 1478 1471 1471 1473 1474 1477 1480 1483 1483 1484 1485 1486 1487 1487 1487 1488 1488 1488 1488 1488 1487 1487 1487 1487 1486 1486 1485 1485 1485 1484 1484 1484 1484 1484
1471 1472 1473 1473 1478 1480 1468 1467 1472 1476 1475 1475 1475 1476 1478 1479 1481 1482 1483 1484 1485 1486 1486 1486 1487 1487 1487 1487 1487 1486 1486 1486 1486 1485 1484 1484 1484 1483 1483 1483 1482 1482 1482 1481
1467 1469 1469 1470 1474 1472 1471 1472 1474 1475 1476 1477 1478 1479 1479 1480 1482 1482 1483 1484 1485 1486 1486 1486 1486 1486 1486 1486 1485 1485 1485 1485 1484 1483 1483 1482 1482 1482 1481 1481 1481 1480 1480 1479
1465 1465 1468 1470 1469 1471 1473 1474 1476 1477 1478 1478 1479 1480 1481 1481 1482 1483 1483 1484 1485 1484 1485 1485 1485 1485 1485 1484 1484 1484 1483 1483 1482 1482 1482 1481 1480 1480 1480 1480 1479 1478 1478 1478
1467 1468 1468 1471 1472 1472 1473 1475 1476 1477 1479 1479 1480 1481 1481 1482 1482 1482 1483 1483 1483 1483 1483 1483 1483 1483 1483 1483 1483 1482 1482 1482 1481 1481 1480 1480 1479 1478 1478 1478 1477 1477 1477 1477
1466 1467 1469 1471 1473 1474 1475 1476 1477 1478 1479 1480 1480 1481 1481 1481 1481 1481 1482 1482 1482 1482 1482 1482 1482 1482 1482 1481 1481 1481 1480 1480 1480 1479 1479 1479 1478 1477 1477 1477 1476 1475 1475 1475